User: anonymous
Location: Daybis Observatory
(33.4273°N, 88.8061°W)
Time: 22:53:46
(UTC-05:00)
Language:

Coronas F rocket - Orbit

View from above orbital plane
View from above orbital plane
View from above satellite
View from above satellite

Ground track
Ground track

The orbit data is extracted from the following two-line orbital elements,

1 26874U 01032B   14261.49294466  .00014035  00000-0  21488-3 0  7875
2 26874 082.4699 245.4219 0016690 076.5548 283.7564 15.54031940735788
Epoch (UTC): 18 September 2014 11:49:50
Eccentricity: 0.0016690
inclination: 82.4699°
perigee height: 393 km
apogee height: 416 km
right ascension of ascending node: 245.4219°
argument of perigee: 76.5548°
revolutions per day: 15.54031940
mean anomaly at epoch: 283.7564°
orbit number at epoch: 73578

The dashed part of the orbit path shows where the satellite is in the earth's shadow,  

DLR